Location: ??????
(38.5153°N, 23.0340°E)
Time: 06:32:36
(UTC+00:00)

USA 59 Rocket - Pass Details

Date: 13 December 2025
Orbit: 369 x 1675 km, 63.3° (Epoch: 20 January)

Event Time Altitude Azimuth Distance (km) Brightness Sun altitude
Rises 16:43:02 0° 181° (S) 3,068 3.8 -18.1°
Reaches altitude 10° 16:46:11 10° 164° (SSE) 1,921 2.6 -18.7°
Enters shadow 16:47:53 16° 143° (SE) 1,447 1.7 -19.0°
